Vorticity
1 1 2 3 7 1 11 15 0 9 1 8 8 -4 8 4 4 -12 10 5 10 9 7 4 2 4 5 4 7 8 7 6 6 7 7 6 4 3 3 5 7 8 8 7 8 9 9 10 9
1 2 1 6 -3 7 7 12 10 3 1 2 -3 2 7 7 4 -12 5 3 7 7 9 6 4 4 5 6 8 7 6 7 7 6 4 3 3 5 8 9 9 10 10 10 9 9 9 9 9
1 2 0 10 17 -1 -2 77 10 4 0 -1 18 -4 -1 11 3 -3 9 7 7 9 7 4 4 5 5 7 6 6 7 6 5 3 2 3 6 8 9 9 9 10 10 10 10 10 9 10 11
5 4 3 -1 -1 26 -15 20 13 3 7 7 7 11 11 -0 13 9 5 8 4 7 3 4 4 5 7 6 6 6 5 5 3 2 3 6 8 11 10 10 9 8 7 8 9 9 10 9 9
6 12 5 15 6 -2 10 10 9 2 8 11 6 2 -2 16 3 7 7 6 8 8 4 6 5 6 6 7 6 5 5 3 3 3 6 7 10 10 8 7 8 7 7 8 8 8 9 9 8
-11 22 2 13 0 12 6 1 1 10 21 10 2 3 -2 5 5 10 6 5 6 5 5 4 6 8 7 7 6 5 4 3 3 4 6 8 9 8 8 7 6 6 6 7 7 7 8 7 6
4 20 1 0 17 0 2 6 12 24 4 12 8 2 8 1 7 8 3 7 7 4 4 5 9 7 7 6 5 4 3 3 3 6 8 9 8 8 7 7 6 6 7 7 7 6 6 6 7
10 -40 21 9 -3 8 26 16 12 5 4 10 -0 15 2 9 7 8 5 7 7 5 3 7 7 7 6 5 4 4 3 3 4 6 8 9 8 6 6 7 6 6 6 6 6 6 5 5 5
27 11 27 -11 24 -3 14 20 7 4 7 1 5 -1 11 11 6 7 7 8 6 6 3 7 8 7 6 5 4 4 3 4 5 7 9 8 7 6 7 6 6 6 6 6 5 4 5 4 5
15 -23 -14 34 13 -3 10 7 23 3 -0 2 0 5 1 3 7 10 10 8 6 4 5 7 7 6 6 5 4 4 4 4 5 7 7 7 7 7 7 7 7 6 5 5 5 4 4 5 6
3 26 -4 9 -10 13 6 19 6 13 11 2 6 4 6 6 5 12 11 6 4 5 8 7 6 6 6 5 4 4 4 5 6 7 7 7 8 9 8 6 6 5 6 6 7 8 8 8 8
10 11 28 -42 -20 6 14 7 3 12 5 18 7 4 4 5 6 7 4 4 6 7 7 6 5 5 6 4 5 4 4 5 6 7 8 8 8 7 6 5 6 6 8 9 8 8 8 8 8
9 6 25 22 -71 -23 -4 16 12 11 -1 4 5 7 7 6 7 9 6 5 6 8 7 5 5 6 6 5 5 5 4 5 6 8 8 8 7 5 4 4 4 4 5 5 6 7 8 7 7
6 18 8 16 8 22 -22 8 16 18 12 1 -1 4 8 6 9 11 7 6 7 8 6 6 6 6 5 6 5 5 5 5 7 8 8 7 4 2 2 4 5 5 4 6 6 7 7 7 6
17 2 9 19 4 13 -30 -0 22 2 8 6 12 4 4 6 10 8 5 7 7 7 5 7 6 5 6 6 5 5 4 6 7 8 8 4 3 2 2 3 3 3 3 3 3 4 4 6 6
29 10 23 11 3 13 45 -24 18 14 7 6 10 5 5 5 10 6 6 6 7 8 6 6 5 5 6 6 6 5 5 6 7 8 7 4 2 2 3 5 6 4 3 3 4 4 5 7 7
8 12 8 25 9 -1 3 27 19 9 10 16 5 5 7 8 7 7 7 7 8 7 7 5 5 5 7 6 6 6 5 5 6 8 7 3 2 2 3 3 3 4 5 3 3 4 6 7 8
-2 9 24 7 23 -3 10 -3 -23 11 7 3 18 3 5 4 7 10 6 7 6 7 6 4 4 6 7 8 7 5 5 5 6 7 6 3 2 2 3 3 5 4 2 3 3 6 6 7 8
23 30 1 24 -0 14 5 2 20 -26 5 -11 16 4 13 6 6 9 7 6 6 8 6 4 5 6 7 7 7 6 5 6 6 7 5 3 3 3 4 4 3 2 1 1 4 5 7 8 6
-3 -12 -11 14 7 58 10 3 15 -8 -4 -4 3 -1 13 8 9 8 8 5 8 8 6 4 5 7 7 8 6 7 7 7 4 5 4 3 3 4 4 3 3 3 1 3 4 7 9 7 6
11 -8 24 15 4 26 11 31 7 -4 -8 -5 6 9 6 12 10 11 8 9 7 9 5 5 6 5 8 8 10 9 5 5 6 5 4 3 3 4 4 4 4 1 1 2 7 9 8 6 5
8 -8 23 -5 31 -16 -6 36 28 25 1 3 18 7 3 7 11 8 9 8 7 8 5 4 6 6 10 13 8 7 5 5 6 4 4 3 3 3 4 4 2 -1 1 5 8 8 6 5 6
31 -25 13 28 -4 18 9 -5 42 -7 16 14 14 14 3 6 8 10 9 6 7 6 4 6 4 9 11 10 9 5 6 6 4 4 4 4 4 4 4 3 -0 0 3 8 8 6 5 6 8
29 7 38 2 4 19 -14 -23 42 6 7 9 14 23 9 8 6 8 8 6 6 5 5 5 6 8 10 11 8 7 6 4 5 4 4 3 4 4 5 1 -1 1 6 10 5 5 8 8 7
6 -11 3 7 7 4 56 -2 -44 49 14 13 9 19 18 6 7 7 7 5 6 7 4 5 6 8 12 10 9 8 6 5 4 4 4 4 5 6 3 -0 -0 5 11 6 5 7 7 7 6
-4 -2 -17 5 11 23 11 26 -42 50 -21 8 8 19 21 11 8 6 7 5 10 7 6 4 6 9 11 10 9 7 5 4 4 4 4 5 6 4 -0 -0 1 10 7 4 6 7 7 6 6
44 -2 -21 -15 18 5 4 21 -1 19 22 -10 1 8 13 18 16 12 7 6 9 6 4 5 6 10 10 9 8 6 5 5 5 5 5 6 5 0 -0 1 5 9 3 5 7 7 6 6 7
-22 24 9 -7 11 6 40 2 -46 40 -4 13 11 -1 11 14 15 17 12 8 7 5 4 7 7 9 10 8 7 6 6 5 5 5 6 6 2 -0 0 2 8 4 4 7 7 6 6 8 10
-7 20 -2 28 -66 8 7 20 27 4 10 24 11 14 7 13 21 18 15 10 7 6 6 7 8 9 9 8 8 6 5 5 6 6 6 3 0 -0 1 6 6 4 7 7 7 8 9 10 12
29 7 -2 -20 46 -7 -15 16 29 11 25 15 21 19 10 14 16 15 13 12 8 8 8 7 9 9 8 7 7 6 6 6 7 5 5 1 1 1 4 6 4 7 7 7 9 10 12 13 14
Height
3153 3154 3156 3158 3162 3158 3156 3156 3157 3156 3159 3161 3163 3165 3165 3167 3167 3171 3166 3165 3167 3169 3170 3171 3173 3173 3174 3174 3174 3174 3174 3174 3174 3174 3174 3174 3173 3173 3172 3170 3169 3169 3168 3167 3166 3166 3165 3165 3165
3149 3151 3154 3155 3156 3154 3153 3153 3155 3154 3156 3159 3160 3163 3164 3165 3165 3166 3166 3166 3166 3167 3169 3170 3171 3172 3173 3173 3173 3173 3173 3173 3174 3174 3173 3173 3172 3171 3169 3168 3167 3167 3166 3166 3165 3165 3164 3163 3163
3145 3147 3150 3151 3149 3149 3150 3149 3150 3151 3153 3156 3159 3159 3160 3162 3163 3165 3165 3164 3164 3166 3169 3170 3171 3171 3172 3172 3172 3173 3173 3173 3173 3173 3173 3172 3170 3169 3167 3167 3166 3166 3165 3165 3164 3164 3163 3163 3162
3142 3144 3147 3145 3143 3147 3148 3150 3146 3149 3152 3154 3156 3158 3159 3159 3161 3163 3164 3164 3163 3166 3167 3168 3170 3170 3171 3171 3172 3172 3172 3173 3172 3172 3171 3170 3169 3168 3167 3166 3166 3165 3165 3164 3164 3163 3163 3162 3161
3137 3140 3140 3139 3140 3144 3147 3147 3146 3148 3150 3152 3152 3154 3156 3157 3159 3161 3161 3162 3160 3165 3166 3168 3169 3169 3170 3170 3171 3171 3172 3172 3172 3171 3170 3169 3167 3166 3166 3166 3166 3166 3165 3164 3164 3163 3163 3162 3161
3129 3134 3134 3135 3138 3142 3144 3143 3143 3146 3147 3149 3150 3152 3155 3156 3157 3159 3159 3160 3160 3163 3165 3166 3167 3168 3169 3169 3170 3171 3171 3171 3171 3170 3169 3167 3166 3166 3166 3166 3166 3165 3165 3164 3163 3162 3162 3161 3160
3122 3124 3128 3132 3137 3140 3139 3139 3142 3143 3144 3146 3147 3150 3154 3154 3156 3157 3157 3159 3160 3160 3164 3165 3165 3166 3167 3168 3169 3170 3170 3170 3170 3169 3168 3167 3166 3166 3166 3166 3165 3165 3164 3164 3163 3162 3161 3161 3161
3114 3118 3124 3128 3133 3137 3134 3136 3141 3142 3142 3144 3144 3145 3150 3153 3153 3155 3156 3157 3158 3159 3160 3164 3164 3165 3166 3167 3168 3168 3169 3169 3169 3168 3167 3167 3166 3166 3166 3166 3165 3164 3164 3163 3162 3162 3161 3160 3159
3107 3111 3117 3126 3130 3131 3130 3133 3136 3136 3137 3139 3141 3142 3148 3150 3151 3152 3154 3155 3157 3158 3159 3160 3162 3164 3164 3165 3167 3167 3168 3168 3168 3167 3167 3167 3166 3166 3165 3165 3165 3164 3163 3163 3162 3161 3160 3159 3158
3102 3105 3110 3112 3118 3123 3126 3130 3134 3134 3134 3136 3140 3141 3145 3147 3149 3150 3152 3153 3155 3157 3158 3159 3160 3162 3163 3164 3165 3166 3167 3167 3166 3166 3166 3166 3165 3166 3165 3165 3164 3164 3163 3162 3161 3160 3159 3157 3156
3099 3093 3110 3107 3113 3119 3124 3127 3128 3132 3131 3134 3138 3140 3143 3144 3146 3148 3149 3150 3153 3155 3156 3157 3159 3160 3162 3163 3164 3165 3165 3165 3164 3165 3165 3165 3165 3165 3165 3164 3164 3163 3162 3161 3160 3159 3158 3156 3154
3099 3105 3104 3109 3108 3117 3119 3123 3125 3127 3129 3129 3132 3137 3139 3142 3144 3146 3146 3148 3151 3152 3154 3155 3157 3158 3160 3161 3162 3162 3163 3164 3164 3164 3164 3164 3164 3164 3164 3163 3163 3162 3161 3160 3158 3157 3156 3154 3152
3092 3096 3097 3101 3108 3112 3118 3121 3121 3122 3125 3126 3129 3134 3136 3139 3141 3142 3144 3146 3147 3150 3151 3153 3155 3156 3158 3159 3160 3161 3162 3162 3163 3163 3162 3163 3163 3163 3163 3163 3162 3161 3160 3159 3157 3156 3154 3153 3152
3092 3092 3096 3101 3103 3109 3116 3117 3116 3120 3120 3124 3127 3130 3132 3135 3137 3139 3142 3143 3145 3147 3149 3152 3153 3155 3156 3158 3158 3159 3160 3160 3161 3161 3161 3161 3162 3162 3162 3162 3161 3160 3159 3158 3156 3155 3153 3151 3150
3087 3092 3094 3096 3100 3098 3116 3110 3112 3115 3116 3120 3124 3126 3128 3130 3133 3136 3139 3140 3143 3145 3147 3149 3151 3153 3154 3155 3156 3157 3158 3158 3159 3159 3160 3160 3161 3161 3160 3160 3159 3158 3157 3156 3155 3153 3152 3150 3148
3083 3084 3085 3090 3094 3092 3102 3104 3110 3112 3113 3117 3120 3122 3124 3126 3130 3133 3135 3137 3139 3142 3144 3147 3149 3150 3152 3153 3154 3154 3155 3156 3157 3158 3159 3159 3159 3159 3158 3158 3157 3156 3155 3154 3153 3151 3150 3148 3146
3079 3078 3082 3085 3087 3092 3098 3099 3106 3105 3108 3113 3116 3118 3120 3122 3125 3128 3131 3134 3136 3138 3141 3143 3145 3147 3149 3150 3151 3151 3152 3154 3155 3156 3157 3157 3157 3156 3156 3155 3154 3153 3152 3150 3148 3147 3145 3144 3142
3070 3075 3077 3078 3082 3086 3092 3091 3101 3103 3105 3109 3111 3113 3116 3118 3121 3124 3127 3130 3132 3135 3138 3139 3141 3144 3145 3146 3148 3149 3150 3151 3152 3153 3154 3155 3154 3154 3154 3153 3151 3150 3148 3147 3145 3143 3140 3137 3136
3070 3072 3076 3080 3081 3082 3081 3087 3094 3098 3101 3103 3105 3107 3110 3114 3116 3118 3122 3125 3128 3131 3133 3135 3138 3140 3141 3142 3144 3145 3147 3148 3149 3150 3151 3151 3151 3151 3150 3149 3148 3146 3145 3142 3140 3138 3135 3132 3129
3066 3069 3071 3074 3075 3076 3078 3082 3089 3092 3092 3099 3103 3102 3105 3108 3110 3113 3117 3120 3123 3127 3129 3132 3134 3136 3137 3139 3140 3142 3143 3145 3146 3147 3147 3148 3147 3147 3146 3145 3143 3141 3140 3138 3135 3133 3131 3128 3124
3061 3063 3066 3071 3072 3075 3076 3080 3081 3086 3088 3090 3096 3096 3098 3102 3104 3108 3112 3115 3118 3121 3125 3128 3130 3132 3133 3134 3136 3140 3140 3141 3142 3143 3143 3143 3143 3142 3141 3140 3138 3137 3135 3133 3130 3127 3123 3121 3119
3058 3062 3064 3067 3068 3069 3071 3071 3073 3080 3083 3082 3087 3089 3091 3095 3098 3102 3106 3110 3113 3117 3120 3123 3126 3128 3129 3132 3133 3135 3136 3137 3138 3138 3138 3138 3139 3138 3136 3135 3134 3132 3130 3126 3124 3121 3117 3112 3110
3052 3058 3062 3061 3065 3065 3064 3068 3060 3071 3070 3072 3077 3081 3083 3088 3092 3097 3101 3105 3108 3112 3116 3119 3121 3123 3125 3127 3129 3129 3132 3133 3133 3134 3134 3135 3134 3133 3132 3130 3129 3126 3123 3119 3116 3114 3111 3107 3102
3053 3059 3055 3061 3064 3061 3055 3058 3053 3058 3061 3067 3070 3075 3077 3081 3085 3090 3095 3099 3102 3106 3110 3113 3116 3118 3120 3121 3123 3125 3127 3128 3129 3129 3129 3129 3128 3127 3127 3124 3122 3119 3116 3113 3110 3107 3103 3099 3095
3045 3051 3056 3064 3062 3052 3047 3055 3044 3051 3056 3060 3063 3067 3070 3073 3077 3083 3088 3091 3096 3102 3105 3109 3110 3113 3115 3116 3119 3122 3123 3124 3124 3124 3124 3124 3122 3121 3119 3118 3116 3113 3110 3106 3102 3099 3095 3089 3085
3040 3041 3044 3048 3047 3043 3047 3043 3040 3047 3052 3054 3057 3061 3064 3066 3071 3077 3082 3086 3093 3097 3100 3103 3105 3108 3110 3112 3115 3117 3118 3119 3120 3120 3119 3118 3117 3115 3114 3112 3109 3106 3102 3098 3093 3089 3085 3080 3075
3032 3034 3036 3037 3034 3035 3035 3036 3039 3040 3044 3049 3051 3054 3056 3059 3064 3070 3076 3081 3087 3091 3095 3098 3100 3103 3105 3108 3110 3112 3113 3114 3115 3114 3114 3113 3111 3109 3107 3104 3101 3098 3093 3089 3084 3079 3074 3069 3064
3024 3032 3038 3038 3038 3036 3027 3027 3027 3030 3037 3041 3043 3047 3050 3054 3057 3063 3069 3076 3081 3086 3088 3093 3095 3098 3101 3103 3105 3107 3108 3108 3109 3109 3108 3106 3105 3103 3100 3097 3093 3089 3085 3080 3074 3069 3064 3058 3053
3018 3021 3027 3028 3029 3028 3030 3023 3022 3028 3031 3035 3037 3040 3045 3048 3052 3057 3063 3070 3076 3080 3083 3088 3090 3094 3096 3098 3100 3101 3102 3102 3103 3102 3101 3100 3098 3095 3092 3088 3084 3079 3074 3070 3064 3059 3053 3047 3042
3009 3013 3019 3020 3020 3021 3022 3021 3021 3023 3026 3029 3033 3036 3040 3045 3048 3053 3058 3064 3069 3074 3078 3082 3086 3089 3090 3093 3094 3095 3096 3096 3096 3096 3094 3092 3091 3088 3083 3079 3075 3069 3064 3059 3053 3047 3041 3035 3030